JMU YSSY-YBTH

Flight info

Callsign JMU
Flight time N/A
Altitude 20000
Route KADOM W386 BTH
Aircraft PC12/L-SDFGRWY/S

Departure

Time 2026-05-07 02:02
Airport Sydney Kingsford Smith International Airport (YSSY)

Arrival

Time N/A
Airport Bathurst Airport (YBTH)
Time Latitude Longitude Altitude Speed Heading
2026-05-07 01:14 -33.93395 151.18850 27 ft 0 kts 188°
2026-05-07 01:57 -33.93428 151.18859 26 ft 10 kts 171°
2026-05-07 01:58 -33.93457 151.18861 26 ft 10 kts 181°
2026-05-07 01:58 -33.93570 151.18846 26 ft 19 kts 165°
2026-05-07 01:58 -33.93642 151.18940 26 ft 15 kts 158°
2026-05-07 01:58 -33.93667 151.18949 27 ft 0 kts 163°
2026-05-07 02:01 -33.93670 151.18950 26 ft 4 kts 164°
2026-05-07 02:01 -33.93732 151.18961 21 ft 9 kts 187°
2026-05-07 02:01 -33.93769 151.18928 22 ft 8 kts 253°
2026-05-07 02:02 -33.93838 151.18645 24 ft 63 kts 254°
2026-05-07 02:02 -33.93994 151.17984 147 ft 90 kts 253°
2026-05-07 02:02 -33.94173 151.17188 562 ft 105 kts 254°
2026-05-07 02:02 -33.94318 151.16261 1027 ft 124 kts 266°
2026-05-07 02:03 -33.94162 151.15248 1710 ft 127 kts 281°
2026-05-07 02:03 -33.93985 151.14231 2518 ft 112 kts 277°
2026-05-07 02:03 -33.93854 151.13316 3261 ft 114 kts 275°
2026-05-07 02:03 -33.93735 151.12363 3963 ft 115 kts 274°
2026-05-07 02:04 -33.93617 151.11411 4715 ft 115 kts 272°
2026-05-07 02:04 -33.93537 151.10783 5211 ft 114 kts 271°
2026-05-07 02:04 -33.93363 151.09520 6171 ft 115 kts 271°
2026-05-07 02:04 -33.93222 151.08575 6895 ft 114 kts 272°
2026-05-07 02:05 -33.93070 151.07632 7589 ft 115 kts 273°
2026-05-07 02:05 -33.92971 151.07010 8057 ft 117 kts 282°
2026-05-07 02:05 -33.92521 151.05835 9085 ft 113 kts 284°
2026-05-07 02:05 -33.92314 151.05256 9594 ft 113 kts 285°
2026-05-07 02:06 -33.92002 151.04387 10340 ft 112 kts 287°
2026-05-07 02:06 -33.91692 151.03500 10953 ft 118 kts 285°
2026-05-07 02:06 -33.91370 151.02613 11754 ft 114 kts 288°
2026-05-07 02:06 -33.91057 151.01745 12567 ft 112 kts 290°
2026-05-07 02:07 -33.90754 151.00898 13417 ft 109 kts 291°
2026-05-07 02:07 -33.90159 150.99233 14803 ft 115 kts 294°
2026-05-07 02:07 -33.89805 150.98248 15034 ft 144 kts 294°
2026-05-07 02:08 -33.89365 150.97026 15042 ft 173 kts 294°
2026-05-07 02:08 -33.88861 150.95621 15045 ft 190 kts 294°
2026-05-07 02:08 -33.88331 150.94141 15040 ft 199 kts 294°
2026-05-07 02:08 -33.87822 150.92577 15050 ft 201 kts 288°
2026-05-07 02:09 -33.87594 150.90929 15052 ft 200 kts 282°
2026-05-07 02:09 -33.87381 150.89250 15051 ft 205 kts 284°
2026-05-07 02:09 -33.87107 150.87559 15052 ft 206 kts 285°
2026-05-07 02:09 -33.86819 150.85862 15055 ft 207 kts 285°
2026-05-07 02:10 -33.86535 150.84160 15051 ft 207 kts 284°
2026-05-07 02:10 -33.86257 150.82464 15052 ft 206 kts 284°
2026-05-07 02:10 -33.85977 150.80774 15050 ft 205 kts 284°
2026-05-07 02:10 -33.85701 150.79109 15050 ft 205 kts 284°
2026-05-07 02:11 -33.85421 150.77423 15054 ft 205 kts 284°
2026-05-07 02:11 -33.85142 150.75740 15052 ft 205 kts 284°
2026-05-07 02:11 -33.84864 150.74059 15041 ft 207 kts 282°
2026-05-07 02:11 -33.84579 150.72345 15042 ft 210 kts 283°
2026-05-07 02:12 -33.84289 150.70619 15042 ft 211 kts 283°
2026-05-07 02:12 -33.84001 150.68888 15043 ft 211 kts 282°
2026-05-07 02:12 -33.83713 150.67155 15043 ft 211 kts 283°
2026-05-07 02:12 -33.83427 150.65443 15043 ft 211 kts 283°
2026-05-07 02:13 -33.83139 150.63714 15047 ft 211 kts 283°
2026-05-07 02:13 -33.82849 150.61984 15055 ft 211 kts 283°
2026-05-07 02:13 -33.82560 150.60257 15059 ft 211 kts 282°
2026-05-07 02:13 -33.82270 150.58524 15053 ft 211 kts 283°
2026-05-07 02:14 -33.81982 150.56798 15055 ft 210 kts 283°
2026-05-07 02:14 -33.81693 150.55077 15053 ft 209 kts 283°
2026-05-07 02:14 -33.81405 150.53382 15062 ft 210 kts 283°
2026-05-07 02:14 -33.81117 150.51664 15075 ft 209 kts 283°
2026-05-07 02:15 -33.80829 150.49939 15067 ft 211 kts 282°
2026-05-07 02:15 -33.80530 150.48203 15078 ft 211 kts 283°